When you browse on this site, cookies collect data to enhance your experience and personalize the content and advertising you see.
Visit our Privacy Policy to learn more. By continuing to use the site, you agree to this use of cookies and data.
  • în România
  • Lista ţărilor
  • Pe 7 zile
  • Temperatura apei
  • Hartă satelitară
  • Meteo pe hartă
  • Widget-uri
  • user-avatar
    Intrare

    Meteo pe oră la Lebyazhe

    Astăzi, 16 Ianuarie, Miercuri

    Timp Temperatura Precipitaţii Vânt Presiune Umiditate
    00:00 -1°C° 0.6 mm 2 m/s 739 mmHg 96%
    01:00 -1°C° 1.2 mm 2 m/s 739 mmHg 96%
    02:00 -2°C° 1.2 mm 3 m/s 738 mmHg 97%
    03:00 -4°C° 0 mm 3 m/s 738 mmHg 97%
    04:00 -4°C° 0.7 mm 3 m/s 738 mmHg 96%
    05:00 -5°C° 0.7 mm 3 m/s 737 mmHg 96%
    06:00 -6°C° 0.7 mm 3 m/s 737 mmHg 96%
    07:00 -7°C° 1.1 mm 4 m/s 736 mmHg 96%
    08:00 -7°C° 1.1 mm 4 m/s 736 mmHg 96%
    09:00 -7°C° 1.1 mm 4 m/s 736 mmHg 96%
    10:00 -7°C° 0.8 mm 4 m/s 735 mmHg 96%
    11:00 -7°C° 0.8 mm 4 m/s 735 mmHg 95%
    12:00 -7°C° 0.8 mm 4 m/s 735 mmHg 95%
    13:00 -7°C° 0.3 mm 4 m/s 736 mmHg 94%
    14:00 -7°C° 0.3 mm 4 m/s 736 mmHg 93%
    15:00 -7°C° 0.3 mm 4 m/s 737 mmHg 92%
    16:00 -8°C° 0 mm 4 m/s 738 mmHg 92%
    17:00 -9°C° 0 mm 4 m/s 739 mmHg 93%
    18:00 -11°C° 0 mm 4 m/s 740 mmHg 93%
    19:00 -10°C° 0 mm 4 m/s 740 mmHg 93%
    20:00 -10°C° 0 mm 4 m/s 741 mmHg 92%
    21:00 -9°C° 0 mm 3 m/s 742 mmHg 92%
    22:00 -9°C° 0 mm 3 m/s 743 mmHg 92%
    23:00 -10°C° 0 mm 3 m/s 743 mmHg 93%

    Mâine, 17 Ianuarie, Joi

    Timp Temperatura Precipitaţii Vânt Presiune Umiditate
    00:00 -10°C° 0 mm 3 m/s 744 mmHg 94%
    01:00 -13°C° 0 mm 3 m/s 744 mmHg 94%
    02:00 -14°C° 0 mm 3 m/s 745 mmHg 95%
    03:00 -15°C° 0 mm 3 m/s 745 mmHg 96%
    04:00 -16°C° 0 mm 3 m/s 746 mmHg 96%
    05:00 -16°C° 0 mm 3 m/s 746 mmHg 96%
    06:00 -17°C° 0 mm 3 m/s 747 mmHg 97%
    07:00 -17°C° 0 mm 3 m/s 747 mmHg 97%
    08:00 -17°C° 0 mm 3 m/s 748 mmHg 97%
    09:00 -17°C° 0 mm 3 m/s 748 mmHg 97%
    10:00 -16°C° 0 mm 3 m/s 749 mmHg 96%
    11:00 -15°C° 0 mm 3 m/s 749 mmHg 96%
    12:00 -15°C° 0 mm 4 m/s 749 mmHg 96%
    13:00 -14°C° 0 mm 4 m/s 749 mmHg 95%
    14:00 -12°C° 0 mm 4 m/s 749 mmHg 94%
    15:00 -12°C° 0 mm 4 m/s 749 mmHg 94%
    16:00 -12°C° 0 mm 4 m/s 749 mmHg 94%
    17:00 -12°C° 0 mm 4 m/s 749 mmHg 94%
    18:00 -13°C° 0 mm 5 m/s 750 mmHg 94%
    19:00 -13°C° 0 mm 5 m/s 749 mmHg 94%
    20:00 -13°C° 0 mm 5 m/s 749 mmHg 95%
    21:00 -14°C° 0 mm 5 m/s 749 mmHg 95%
    22:00 -15°C° 0 mm 6 m/s 749 mmHg 94%
    23:00 -15°C° 0 mm 6 m/s 749 mmHg 94%

    Poimâine, 18 Ianuarie, Vineri

    Timp Temperatura Precipitaţii Vânt Presiune Umiditate
    00:00 -15°C° 0 mm 6 m/s 748 mmHg 93%
    01:00 -12°C° 0 mm 6 m/s 748 mmHg 93%
    02:00 -12°C° 0 mm 7 m/s 748 mmHg 92%
    03:00 -9°C° 0 mm 7 m/s 748 mmHg 92%
    04:00 -9°C° 0 mm 7 m/s 748 mmHg 91%
    05:00 -9°C° 0 mm 7 m/s 747 mmHg 91%
    06:00 -9°C° 0 mm 6 m/s 747 mmHg 90%
    07:00 -9°C° 0 mm 6 m/s 747 mmHg 91%
    08:00 -8°C° 0 mm 6 m/s 747 mmHg 91%
    09:00 -8°C° 0 mm 6 m/s 747 mmHg 91%
    10:00 -7°C° 0 mm 7 m/s 747 mmHg 91%
    11:00 -7°C° 0 mm 7 m/s 747 mmHg 90%
    12:00 -6°C° 0 mm 7 m/s 747 mmHg 90%
    13:00 -6°C° 0.1 mm 7 m/s 747 mmHg 90%
    14:00 -6°C° 0.1 mm 7 m/s 747 mmHg 90%
    15:00 -6°C° 0.1 mm 7 m/s 746 mmHg 89%
    16:00 -5°C° 0.1 mm 6 m/s 746 mmHg 90%
    17:00 -5°C° 0.1 mm 6 m/s 746 mmHg 90%
    18:00 -4°C° 0.1 mm 5 m/s 746 mmHg 91%
    19:00 -4°C° 0 mm 6 m/s 746 mmHg 91%
    20:00 -4°C° 0 mm 6 m/s 745 mmHg 91%
    21:00 -3°C° 0 mm 6 m/s 745 mmHg 92%
    22:00 -3°C° 0.1 mm 6 m/s 744 mmHg 92%
    23:00 -3°C° 0.1 mm 7 m/s 744 mmHg 92%

    19 Ianuarie, Sâmbătă

    Timp Temperatura Precipitaţii Vânt Presiune Umiditate
    00:00 -2°C° 0.1 mm 7 m/s 744 mmHg 92%
    01:00 -2°C° 0.3 mm 7 m/s 744 mmHg 92%
    02:00 -2°C° 0.3 mm 7 m/s 744 mmHg 92%
    03:00 -2°C° 0.3 mm 7 m/s 744 mmHg 92%
    04:00 -2°C° 0.2 mm 7 m/s 744 mmHg 91%
    05:00 -3°C° 0.2 mm 6 m/s 744 mmHg 90%
    06:00 -2°C° 0.2 mm 5 m/s 744 mmHg 89%
    07:00 -4°C° 0 mm 5 m/s 745 mmHg 90%
    08:00 -5°C° 0 mm 5 m/s 745 mmHg 90%
    09:00 -7°C° 0 mm 5 m/s 746 mmHg 90%
    10:00 -6°C° 0 mm 6 m/s 747 mmHg 90%
    11:00 -5°C° 0 mm 6 m/s 747 mmHg 89%
    12:00 -5°C° 0 mm 6 m/s 748 mmHg 89%
    13:00 -6°C° 0 mm 6 m/s 748 mmHg 88%
    14:00 -7°C° 0 mm 5 m/s 749 mmHg 87%
    15:00 -9°C° 0 mm 4 m/s 749 mmHg 86%
    16:00 -10°C° 0 mm 4 m/s 749 mmHg 88%
    17:00 -12°C° 0 mm 4 m/s 750 mmHg 90%
    18:00 -14°C° 0 mm 4 m/s 750 mmHg 92%
    19:00 -12°C° 0 mm 4 m/s 751 mmHg 92%
    20:00 -12°C° 0 mm 4 m/s 751 mmHg 92%
    21:00 -12°C° 0 mm 3 m/s 751 mmHg 92%
    22:00 -12°C° 0 mm 4 m/s 752 mmHg 92%
    23:00 -14°C° 0 mm 4 m/s 752 mmHg 92%

    20 Ianuarie, Duminică

    Timp Temperatura Precipitaţii Vânt Presiune Umiditate
    00:00 -15°C° 0 mm 4 m/s 752 mmHg 92%
    01:00 -15°C° 0 mm 4 m/s 752 mmHg 93%
    02:00 -15°C° 0 mm 4 m/s 752 mmHg 93%
    03:00 -16°C° 0 mm 4 m/s 753 mmHg 94%
    04:00 -16°C° 0 mm 4 m/s 753 mmHg 95%
    05:00 -16°C° 0 mm 4 m/s 753 mmHg 95%
    06:00 -17°C° 0 mm 4 m/s 753 mmHg 96%
    07:00 -16°C° 0 mm 4 m/s 753 mmHg 94%
    08:00 -16°C° 0 mm 4 m/s 753 mmHg 92%
    09:00 -15°C° 0 mm 4 m/s 753 mmHg 90%
    10:00 -15°C° 0 mm 4 m/s 753 mmHg 90%
    11:00 -14°C° 0 mm 5 m/s 753 mmHg 89%
    12:00 -13°C° 0 mm 5 m/s 754 mmHg 89%
    13:00 -12°C° 0 mm 4 m/s 753 mmHg 90%
    14:00 -14°C° 0 mm 4 m/s 753 mmHg 90%
    15:00 -14°C° 0 mm 4 m/s 753 mmHg 91%
    16:00 -14°C° 0 mm 3 m/s 753 mmHg 92%
    17:00 -15°C° 0 mm 3 m/s 753 mmHg 93%
    18:00 -16°C° 0 mm 3 m/s 753 mmHg 94%
    19:00 -16°C° 0 mm 3 m/s 753 mmHg 94%
    20:00 -16°C° 0 mm 3 m/s 753 mmHg 94%
    21:00 -16°C° 0 mm 3 m/s 753 mmHg 94%
    22:00 -15°C° 0 mm 3 m/s 753 mmHg 94%
    23:00 -15°C° 0 mm 3 m/s 753 mmHg 94%

    21 Ianuarie, Luni

    Timp Temperatura Precipitaţii Vânt Presiune Umiditate
    00:00 -15°C° 0 mm 3 m/s 753 mmHg 94%
    01:00 -14°C° 0.1 mm 3 m/s 752 mmHg 94%
    02:00 -14°C° 0.1 mm 3 m/s 752 mmHg 95%
    03:00 -14°C° 0.1 mm 3 m/s 752 mmHg 96%
    04:00 -13°C° 0.1 mm 2 m/s 752 mmHg 96%
    05:00 -12°C° 0.1 mm 2 m/s 751 mmHg 97%
    06:00 -12°C° 0.1 mm 2 m/s 751 mmHg 97%
    07:00 -12°C° 0.1 mm 2 m/s 751 mmHg 97%
    08:00 -10°C° 0.1 mm 2 m/s 750 mmHg 97%
    09:00 -10°C° 0.1 mm 2 m/s 750 mmHg 97%
    10:00 -10°C° 0.3 mm 2 m/s 750 mmHg 97%
    11:00 -9°C° 0.3 mm 2 m/s 749 mmHg 97%
    12:00 -9°C° 0.3 mm 2 m/s 748 mmHg 96%
    13:00 -10°C° 0.5 mm 3 m/s 747 mmHg 96%
    14:00 -11°C° 0.5 mm 4 m/s 747 mmHg 96%
    15:00 -12°C° 0.5 mm 5 m/s 746 mmHg 96%
    16:00 -12°C° 0.3 mm 5 m/s 746 mmHg 95%
    17:00 -12°C° 0.3 mm 6 m/s 745 mmHg 94%
    18:00 -12°C° 0.3 mm 6 m/s 745 mmHg 94%
    19:00 -14°C° 0.1 mm 6 m/s 745 mmHg 93%
    20:00 -14°C° 0.1 mm 6 m/s 745 mmHg 93%
    21:00 -15°C° 0.1 mm 7 m/s 745 mmHg 93%
    22:00 -15°C° 0.1 mm 7 m/s 745 mmHg 93%
    23:00 -15°C° 0.1 mm 7 m/s 746 mmHg 92%
    Arată mai mult